W1REE Weather Reports


time (UTC)temp
C
wind
direction
speed
KPH
gust
KPH
rain 1hr
cm
rain 24hr
cm
rain mn
cm
humidity
%
barometer
mb
20260906122759 15 311 0.0 0.0 0.00 0.00 0.00 71 1023.6
20260906122255 15 311 0.0 0.0 0.00 0.00 0.00 71 1023.4
20260906121751 15 311 0.0 0.0 0.00 0.00 0.00 70 1023.4
20260906121247 15 311 0.0 1.6 0.00 0.00 0.00 70 1023.2
20260906120742 15 311 0.0 0.0 0.00 0.00 0.00 70 1023.4
20260906120239 15 311 0.0 1.6 0.00 0.00 0.00 71 1023.2
20260906115735 15 311 0.0 0.0 0.00 0.00 0.00 70 1023.2
20260906115230 15 310 0.0 0.0 0.00 0.00 0.00 69 1023.2
20260906114728 15 311 0.0 0.0 0.00 0.00 0.00 70 1023.2
20260906114224 16 311 0.0 0.0 0.00 0.00 0.00 66 1023.1
20260906113719 16 311 0.0 0.0 0.00 0.00 0.00 66 1023.2
20260906113219 16 311 0.0 0.0 0.00 0.00 0.00 65 1023.0
20260906112718 16 310 0.0 1.6 0.00 0.00 0.00 66 1023.1
20260906112215 16 311 0.0 0.0 0.00 0.00 0.00 65 1022.8
20260906111714 16 311 0.0 0.0 0.00 0.00 0.00 64 1023.0
20260906111209 16 311 0.0 0.0 0.00 0.00 0.00 63 1023.0
20260906110705 16 311 0.0 0.0 0.00 0.00 0.00 64 1022.6
20260906110200 17 311 0.0 0.0 0.00 0.00 0.00 63 1022.8
20260906105700 16 311 0.0 0.0 0.00 0.00 0.00 63 1022.8
20260906105156 16 311 1.6 1.6 0.00 0.00 0.00 64 1022.6
20260906104656 16 311 0.0 0.0 0.00 0.00 0.00 64 1022.6
20260906104155 16 311 0.0 0.0 0.00 0.00 0.00 62 1022.8
20260906103653 16 311 0.0 0.0 0.00 0.00 0.00 64 1022.9
20260906103148 16 311 0.0 0.0 0.00 0.00 0.00 67 1022.8
20260906102643 16 311 0.0 0.0 0.00 0.00 0.00 65 1022.8
20260906102143 16 311 0.0 0.0 0.00 0.00 0.00 64 1023.0
20260906101642 16 311 1.6 1.6 0.00 0.00 0.00 65 1022.9
20260906101137 16 311 0.0 0.0 0.00 0.00 0.00 66 1023.0
20260906100633 17 311 0.0 1.6 0.00 0.00 0.00 65 1023.1
20260906100128 17 311 1.6 1.6 0.00 0.00 0.00 65 1023.1
20260906095627 17 311 0.0 0.0 0.00 0.00 0.00 65 1023.2
20260906095123 17 311 0.0 0.0 0.00 0.00 0.00 64 1023.2
20260906094622 17 311 0.0 0.0 0.00 0.00 0.00 63 1023.1
20260906094118 17 311 0.0 0.0 0.00 0.00 0.00 64 1023.1
20260906093614 17 311 0.0 1.6 0.00 0.00 0.00 63 1023.2
20260906093114 17 311 0.0 0.0 0.00 0.00 0.00 62 1023.2
20260906092610 17 311 0.0 0.0 0.00 0.00 0.00 61 1023.4
20260906092105 17 311 0.0 0.0 0.00 0.00 0.00 59 1023.1
20260906091601 17 302 1.6 1.6 0.00 0.00 0.00 58 1022.9
20260906091057 17 302 0.0 0.0 0.00 0.00 0.00 59 1022.8
20260906090556 17 302 0.0 0.0 0.00 0.00 0.00 59 1022.8
20260906090056 18 302 0.0 0.0 0.00 0.00 0.00 58 1023.0
20260906085555 17 302 0.0 0.0 0.00 0.00 0.00 56 1022.8
20260906085050 17 302 0.0 0.0 0.00 0.00 0.00 58 1022.8
20260906084545 18 302 0.0 1.6 0.00 0.00 0.00 58 1022.8
20260906084043 18 302 0.0 0.0 0.00 0.00 0.00 55 1022.8
20260906083539 18 302 0.0 0.0 0.00 0.00 0.00 55 1022.6
20260906083039 18 301 0.0 0.0 0.00 0.00 0.00 53 1022.9
20260906082534 18 309 0.0 0.0 0.00 0.00 0.00 53 1022.9
20260906082030 18 309 0.0 1.6 0.00 0.00 0.00 54 1022.9
20260906081525 18 305 1.6 3.2 0.00 0.00 0.00 55 1023.0
20260906081022 19 291 0.0 0.0 0.00 0.00 0.00 57 1023.0
20260906080518 20 292 0.0 0.0 0.00 0.00 0.00 54 1023.0
20260906080014 20 292 0.0 1.6 0.00 0.00 0.00 53 1023.0
20260906075513 20 290 3.2 3.2 0.00 0.00 0.00 54 1023.2
20260906075008 20 287 3.2 3.2 0.00 0.00 0.00 54 1023.1
20260906074503 20 295 3.2 3.2 0.00 0.00 0.00 53 1023.1
20260906074001 19 291 3.2 4.8 0.00 0.00 0.00 56 1023.1
20260906073456 19 306 3.2 3.2 0.00 0.00 0.00 58 1023.0
20260906072952 18 312 0.0 1.6 0.00 0.00 0.00 60 1023.2
20260906072447 18 308 1.6 3.2 0.00 0.00 0.00 64 1023.1
20260906071943 18 310 1.6 1.6 0.00 0.00 0.00 64 1023.0
20260906071439 18 309 1.6 1.6 0.00 0.00 0.00 64 1023.0
20260906070935 18 304 1.6 1.6 0.00 0.00 0.00 64 1023.1
20260906070431 17 294 3.2 3.2 0.00 0.00 0.00 64 1023.4
20260906065926 17 294 1.6 1.6 0.00 0.00 0.00 64 1023.4
20260906065420 17 294 0.0 1.6 0.00 0.00 0.00 66 1023.2
20260906064916 16 294 0.0 0.0 0.00 0.00 0.00 67 1023.2
20260906064413 16 294 1.6 1.6 0.00 0.00 0.00 69 1023.2
20260906063912 17 294 0.0 0.0 0.00 0.00 0.00 67 1023.6
20260906063408 17 294 0.0 0.0 0.00 0.00 0.00 66 1023.4
20260906062902 17 294 0.0 0.0 0.00 0.00 0.00 65 1023.5
20260906062402 17 294 1.6 1.6 0.00 0.00 0.00 64 1023.4
20260906061857 17 294 0.0 1.6 0.00 0.00 0.00 62 1023.4
20260906061354 17 294 0.0 1.6 0.00 0.00 0.00 63 1023.2
20260906060848 17 294 0.0 0.0 0.00 0.00 0.00 63 1023.1
20260906060346 17 294 1.6 1.6 0.00 0.00 0.00 63 1023.0
20260906055841 17 294 1.6 1.6 0.00 0.03 0.03 63 1023.4
20260906055337 18 294 0.0 0.0 0.00 0.03 0.03 62 1023.4
20260906054832 18 294 0.0 0.0 0.00 0.03 0.03 61 1023.4
20260906054327 18 294 0.0 0.0 0.00 0.03 0.03 61 1022.9
20260906053824 18 294 0.0 0.0 0.00 0.03 0.03 59 1023.0
20260906053319 19 294 0.0 0.0 0.00 0.03 0.03 59 1023.0
20260906052814 18 294 1.6 1.6 0.00 0.03 0.03 58 1023.0
20260906052310 19 294 0.0 0.0 0.00 0.03 0.03 57 1023.1
20260906051807 19 294 0.0 0.0 0.00 0.03 0.03 56 1023.0
20260906051307 19 294 0.0 0.0 0.00 0.03 0.03 56 1022.9
20260906050802 20 294 0.0 0.0 0.00 0.03 0.03 55 1023.0
20260906050257 20 292 1.6 1.6 0.00 0.03 0.03 54 1023.1
20260906045756 20 299 0.0 1.6 0.00 0.03 0.03 53 1023.0
20260906045250 20 299 0.0 0.0 0.00 0.03 0.03 54 1023.1
20260906044747 20 299 3.2 3.2 0.00 0.03 0.03 52 1022.9
20260906044241 20 300 1.6 1.6 0.00 0.03 0.03 51 1023.1
20260906043737 21 298 1.6 3.2 0.00 0.03 0.03 50 1023.2
20260906043233 21 298 0.0 1.6 0.00 0.03 0.03 49 1023.1
20260906042733 21 300 1.6 1.6 0.00 0.03 0.03 50 1023.1
20260906042232 21 300 1.6 3.2 0.00 0.03 0.03 50 1023.4
20260906041727 21 301 1.6 1.6 0.00 0.03 0.03 50 1023.5
20260906041223 21 303 1.6 1.6 0.00 0.03 0.03 49 1023.2
20260906040718 21 304 0.0 0.0 0.00 0.03 0.03 47 1023.2
20260906040214 21 303 0.0 1.6 0.00 0.03 0.03 46 1023.1
20260906035709 22 303 0.0 1.6 0.00 0.03 0.03 46 1023.1
20260906035205 22 293 3.2 3.2 0.00 0.03 0.03 45 1023.4
20260906034704 22 290 1.6 1.6 0.00 0.03 0.03 44 1023.2
20260906034159 22 293 0.0 0.0 0.00 0.03 0.03 45 1023.4
20260906033655 22 294 4.8 4.8 0.00 0.03 0.03 44 1023.4
20260906033156 22 293 0.0 0.0 0.00 0.03 0.03 45 1023.2
20260906032652 22 293 1.6 1.6 0.00 0.03 0.03 45 1023.2
20260906032152 22 293 1.6 3.2 0.00 0.03 0.03 46 1023.2
20260906031647 22 293 0.0 1.6 0.00 0.03 0.03 46 1023.1
20260906031143 21 282 6.4 9.7 0.00 0.03 0.03 46 1023.0
20260906030642 22 294 0.0 1.6 0.00 0.03 0.03 46 1023.1
20260906030137 22 294 1.6 1.6 0.00 0.03 0.03 45 1023.0
20260906025637 22 295 1.6 1.6 0.00 0.03 0.03 45 1022.8
20260906025136 22 296 0.0 1.6 0.00 0.03 0.03 45 1022.6
20260906024630 22 296 0.0 1.6 0.00 0.03 0.03 44 1022.5
20260906024125 22 295 3.2 3.2 0.00 0.03 0.03 43 1022.5
20260906023621 22 333 0.0 1.6 0.00 0.03 0.03 44 1022.3
20260906023120 23 333 0.0 0.0 0.00 0.03 0.03 43 1022.4
20260906022616 22 321 0.0 0.0 0.00 0.03 0.03 41 1022.2
20260906022111 23 312 1.6 1.6 0.00 0.03 0.03 41 1022.2
20260906021607 23 307 1.6 1.6 0.00 0.03 0.03 37 1021.9
20260906021106 23 273 4.8 6.4 0.00 0.03 0.03 36 1021.6
20260906020605 24 279 1.6 1.6 0.00 0.03 0.03 37 1021.6
20260906020100 24 284 6.4 9.7 0.00 0.03 0.03 37 1021.4
20260906015600 24 285 4.8 4.8 0.00 0.03 0.03 37 1021.6
20260906015059 25 281 6.4 6.4 0.00 0.03 0.03 37 1021.4
20260906014554 25 284 3.2 4.8 0.00 0.03 0.03 36 1021.3
20260906014050 25 306 4.8 6.4 0.00 0.03 0.03 36 1021.2
20260906013545 25 287 8.0 9.7 0.00 0.03 0.03 36 1021.3
20260906013040 25 299 3.2 3.2 0.00 0.03 0.03 36 1021.1
20260906012535 25 293 3.2 4.8 0.00 0.03 0.03 36 1021.3
20260906012035 25 286 6.4 11.3 0.00 0.03 0.03 36 1021.3
20260906011531 25 276 4.8 4.8 0.00 0.03 0.03 36 1021.3
20260906011031 25 283 4.8 4.8 0.00 0.03 0.03 36 1021.3
20260906010526 26 305 1.6 3.2 0.00 0.03 0.03 36 1021.4
20260906010022 25 286 3.2 4.8 0.00 0.03 0.03 37 1021.3
20260906005521 25 303 3.2 3.2 0.00 0.03 0.03 39 1021.6
20260906005021 25 299 3.2 3.2 0.00 0.03 0.03 40 1021.6
20260906004515 26 311 1.6 1.6 0.00 0.03 0.03 43 1021.6
20260906004010 26 311 0.0 0.0 0.00 0.03 0.03 40 1021.3
20260906003505 27 311 0.0 1.6 0.00 0.03 0.03 36 1021.3
20260906003001 27 311 0.0 0.0 0.00 0.03 0.03 31 1021.4
20260906002501 28 311 0.0 0.0 0.00 0.03 0.03 29 1021.3
20260906001955 28 311 0.0 0.0 0.00 0.03 0.03 30 1021.4
20260906001452 28 311 0.0 0.0 0.00 0.03 0.03 30 1021.6
20260906000946 29 311 0.0 0.0 0.00 0.03 0.03 29 1021.6
20260906000442 29 311 0.0 0.0 0.00 0.03 0.03 29 1021.2
20260905235936 29 311 0.0 0.0 0.00 0.03 0.03 27 1021.3
20260905235436 29 311 1.6 1.6 0.00 0.03 0.03 26 1021.3
20260905234931 29 312 0.0 0.0 0.00 0.03 0.03 29 1021.4
20260905234427 29 312 0.0 0.0 0.00 0.03 0.03 28 1021.4
20260905233926 30 312 0.0 1.6 0.00 0.03 0.03 28 1021.3
20260905233422 30 311 0.0 0.0 0.00 0.03 0.03 27 1021.2
20260905232921 31 294 3.2 3.2 0.00 0.03 0.03 24 1021.2
20260905232417 31 297 1.6 3.2 0.00 0.03 0.03 24 1021.3
20260905231912 31 300 1.6 3.2 0.00 0.03 0.03 24 1021.4
20260905231408 30 316 0.0 0.0 0.00 0.03 0.03 26 1021.3
20260905230905 30 304 3.2 4.8 0.00 0.03 0.03 25 1021.4
20260905230403 30 292 1.6 3.2 0.00 0.03 0.03 27 1021.4
20260905225901 29 315 0.0 1.6 0.00 0.03 0.03 29 1021.6
20260905225356 29 322 3.2 3.2 0.00 0.03 0.03 26 1021.6
20260905224851 29 319 0.0 1.6 0.00 0.03 0.03 28 1021.7
20260905224347 29 337 3.2 3.2 0.00 0.03 0.03 28 1021.4
20260905223841 29 319 3.2 3.2 0.00 0.03 0.03 27 1021.4
20260905223340 29 279 4.8 6.4 0.00 0.03 0.03 26 1021.6
20260905222840 30 328 8.0 11.3 0.00 0.03 0.03 26 1021.7
20260905222338 30 315 1.6 1.6 0.00 0.03 0.03 27 1021.3
20260905221835 30 331 1.6 1.6 0.00 0.03 0.03 25 1021.7
20260905221331 30 312 1.6 1.6 0.00 0.03 0.03 30 1021.7
20260905220827 30 302 3.2 4.8 0.00 0.03 0.03 27 1021.7
20260905220323 28 315 0.0 0.0 0.00 0.03 0.03 33 1021.7
20260905215822 28 303 3.2 4.8 0.00 0.03 0.03 31 1021.6
20260905215318 28 295 4.8 4.8 0.00 0.03 0.03 31 1021.7
20260905214814 27 313 1.6 1.6 0.00 0.03 0.03 33 1021.8
20260905214309 27 306 4.8 6.4 0.00 0.03 0.03 35 1021.8
20260905213804 27 300 6.4 9.7 0.00 0.03 0.03 38 1021.8
20260905213300 25 313 3.2 3.2 0.00 0.03 0.03 44 1021.8
20260905212755 23 281 6.4 9.7 0.00 0.03 0.03 52 1021.8
20260905212255 23 292 9.7 11.3 0.00 0.03 0.03 53 1021.7
20260905211755 23 281 6.4 6.4 0.00 0.03 0.03 56 1021.9
20260905211250 23 301 6.4 9.7 0.00 0.03 0.03 54 1022.0
20260905210747 22 289 6.4 11.3 0.18 0.03 0.03 56 1022.2
20260905210246 22 248 8.0 11.3 0.18 0.03 0.03 57 1022.3
20260905205745 21 263 6.4 9.7 0.18 0.03 0.03 63 1022.2
20260905205240 21 287 4.8 4.8 0.00 0.00 0.00 63 1022.2
20260905204739 21 304 0.0 0.0 0.00 0.00 0.00 65 1022.0
20260905204235 21 302 4.8 4.8 0.00 0.00 0.00 65 1022.5
20260905203735 27 303 12.9 14.5 0.00 0.00 0.00 51 1022.4
20260905203230 29 290 6.4 6.4 0.00 0.00 0.00 28 1022.3
20260905202726 30 333 0.0 0.0 0.00 0.00 0.00 29 1021.9
20260905202221 30 358 0.0 1.6 0.00 0.00 0.00 27 1021.9
20260905201717 30 357 0.0 0.0 0.00 0.00 0.00 26 1021.9
20260905201216 30 320 0.0 0.0 0.00 0.00 0.00 28 1021.9
20260905200712 30 329 0.0 0.0 0.00 0.00 0.00 28 1021.8
20260905200208 30 356 0.0 0.0 0.00 0.00 0.00 27 1021.8
20260905195705 31 318 0.0 0.0 0.00 0.00 0.00 26 1021.9
20260905195200 32 322 3.2 3.2 0.00 0.00 0.00 25 1021.7
20260905194656 32 306 0.0 1.6 0.00 0.00 0.00 24 1021.7
20260905194156 31 355 0.0 0.0 0.00 0.00 0.00 25 1021.9
20260905193655 31 354 0.0 0.0 0.00 0.00 0.00 27 1021.9
20260905193151 33 358 3.2 3.2 0.00 0.00 0.00 22 1022.0
20260905192646 33 324 0.0 0.0 0.00 0.00 0.00 26 1022.0
20260905192143 32 342 1.6 1.6 0.00 0.00 0.00 22 1022.0
20260905191642 32 336 0.0 0.0 0.00 0.00 0.00 24 1022.2
20260905191140 32 336 0.0 0.0 0.00 0.00 0.00 24 1022.2
20260905190639 32 343 0.0 1.6 0.00 0.00 0.00 25 1022.0
20260905190138 32 16 3.2 3.2 0.00 0.00 0.00 21 1022.0
20260905185637 33 307 0.0 0.0 0.00 0.00 0.00 21 1022.2
20260905185132 33 303 3.2 3.2 0.00 0.00 0.00 21 1022.3
20260905184631 32 312 0.0 0.0 0.00 0.00 0.00 24 1022.4
20260905184131 32 126 0.0 1.6 0.00 0.00 0.00 23 1022.3
20260905183630 31 2 1.6 1.6 0.00 0.00 0.00 24 1022.6
20260905183126 31 353 1.6 1.6 0.00 0.00 0.00 23 1022.5
20260905182625 31 347 0.0 1.6 0.00 0.00 0.00 25 1022.6
20260905182125 31 6 1.6 1.6 0.00 0.00 0.00 23 1022.5
20260905181620 31 359 1.6 1.6 0.00 0.00 0.00 26 1022.4
20260905181119 31 311 1.6 1.6 0.00 0.00 0.00 22 1022.6
20260905180614 32 301 1.6 1.6 0.00 0.00 0.00 22 1022.8
20260905180109 32 306 4.8 6.4 0.00 0.00 0.00 21 1022.8
20260905175609 31 307 0.0 1.6 0.00 0.00 0.00 22 1022.8
20260905175104 31 357 0.0 1.6 0.00 0.00 0.00 23 1022.8
20260905174600 31 358 1.6 1.6 0.00 0.00 0.00 22 1022.9
20260905174055 31 22 1.6 1.6 0.00 0.00 0.00 25 1022.9
20260905173551 31 106 4.8 4.8 0.00 0.00 0.00 24 1023.0
20260905173046 30 300 0.0 0.0 0.00 0.00 0.00 29 1022.9
20260905172545 31 318 3.2 3.2 0.00 0.00 0.00 25 1023.1
20260905172040 30 352 1.6 1.6 0.00 0.00 0.00 26 1023.1
20260905171537 30 1 0.0 1.6 0.00 0.00 0.00 28 1023.2
20260905171032 30 354 0.0 0.0 0.00 0.00 0.00 28 1023.2
20260905170529 29 331 1.6 3.2 0.00 0.00 0.00 26 1023.4
20260905170023 28 358 0.0 0.0 0.00 0.00 0.00 29 1023.2
20260905165519 28 353 1.6 1.6 0.00 0.00 0.00 29 1023.1
20260905165014 27 308 1.6 1.6 0.00 0.00 0.00 31 1023.1
20260905164514 26 325 1.6 1.6 0.00 0.00 0.00 31 1023.1
20260905164008 26 326 0.0 0.0 0.00 0.00 0.00 38 1023.1
20260905163505 26 325 0.0 0.0 0.00 0.00 0.00 34 1023.1
20260905163000 26 325 0.0 0.0 0.00 0.00 0.00 34 1023.1
20260905162456 26 327 0.0 1.6 0.00 0.00 0.00 32 1023.1
20260905161951 26 327 0.0 1.6 0.00 0.00 0.00 38 1023.2
20260905161450 25 326 0.0 0.0 0.00 0.00 0.00 35 1023.0
20260905160948 25 359 0.0 0.0 0.00 0.00 0.00 37 1023.2
20260905160442 25 359 0.0 0.0 0.00 0.00 0.00 35 1023.0
20260905155941 25 315 0.0 0.0 0.00 0.00 0.00 45 1023.1
20260905155437 25 307 0.0 0.0 0.00 0.00 0.00 38 1023.0
20260905154935 24 317 1.6 1.6 0.00 0.00 0.00 38 1023.0
20260905154431 24 5 0.0 0.0 0.00 0.00 0.00 40 1022.8
20260905153926 24 5 1.6 1.6 0.00 0.00 0.00 39 1023.0
20260905153422 23 5 0.0 1.6 0.00 0.00 0.00 40 1023.0
20260905152922 23 5 0.0 0.0 0.00 0.00 0.00 44 1023.0
20260905152421 23 5 1.6 3.2 0.00 0.00 0.00 43 1023.1
20260905151916 23 6 1.6 1.6 0.00 0.00 0.00 45 1023.4
20260905151412 23 6 0.0 0.0 0.00 0.00 0.00 47 1023.0
20260905150906 22 6 0.0 1.6 0.00 0.00 0.00 47 1023.0
20260905150401 22 5 0.0 0.0 0.00 0.00 0.00 57 1023.1
20260905145858 22 6 0.0 1.6 0.00 0.00 0.00 55 1023.2
20260905145358 21 5 0.0 0.0 0.00 0.00 0.00 57 1023.2
20260905144857 21 3 1.6 1.6 0.00 0.00 0.00 57 1023.0
20260905144353 20 1 0.0 1.6 0.00 0.00 0.00 57 1023.0
20260905143851 20 2 1.6 1.6 0.00 0.00 0.00 58 1023.1
20260905143346 21 295 1.6 1.6 0.00 0.00 0.00 56 1023.0
20260905142845 20 293 0.0 0.0 0.00 0.00 0.00 57 1023.1
20260905142344 19 294 0.0 0.0 0.00 0.00 0.00 63 1023.2
20260905141840 18 294 0.0 0.0 0.00 0.00 0.00 65 1023.2
20260905141335 16 293 0.0 0.0 0.00 0.00 0.00 72 1023.4
20260905140831 15 293 0.0 0.0 0.00 0.00 0.00 75 1023.4
20260905140331 15 292 0.0 0.0 0.00 0.00 0.00 74 1023.4
20260905135830 14 292 0.0 0.0 0.00 0.00 0.00 74 1023.2
20260905135327 14 292 0.0 0.0 0.00 0.00 0.00 75 1023.2
20260905134822 14 292 0.0 1.6 0.00 0.00 0.00 76 1023.2
20260905134320 14 292 0.0 0.0 0.00 0.00 0.00 77 1023.1
20260905133820 13 292 1.6 1.6 0.00 0.00 0.00 77 1023.1
20260905133316 13 292 0.0 1.6 0.00 0.00 0.00 77 1023.0
20260905132815 13 292 0.0 0.0 0.00 0.00 0.00 77 1022.9
20260905132310 13 292 0.0 0.0 0.00 0.00 0.00 77 1022.8
20260905131805 13 292 0.0 0.0 0.00 0.00 0.00 77 1022.9
20260905131300 13 292 0.0 0.0 0.00 0.00 0.00 76 1022.8
20260905130755 13 292 0.0 0.0 0.00 0.00 0.00 75 1022.9
20260905130254 13 292 0.0 0.0 0.00 0.00 0.00 76 1022.6
20260905125749 13 292 0.0 0.0 0.00 0.00 0.00 77 1022.8
20260905125244 13 292 0.0 1.6 0.00 0.00 0.00 77 1022.5
20260905124741 13 292 0.0 1.6 0.00 0.00 0.00 77 1022.3
20260905124237 13 292 0.0 0.0 0.00 0.00 0.00 75 1022.3
20260905123732 13 292 0.0 0.0 0.00 0.00 0.00 76 1022.2
20260905123229 13 292 1.6 1.6 0.00 0.00 0.00 78 1022.2